When you browse on this site, cookies collect data to enhance your experience and personalize the content and advertising you see.
Visit our Privacy Policy to learn more. By continuing to use the site, you agree to this use of cookies and data.
  • în România
  • Lista ţărilor
  • Pe 7 zile
  • Temperatura apei
  • Meteo pe hartă
  • Widget-uri
  • user-avatar
    Intrare

    Meteo pe oră la Mingachevir

    Astăzi, 19 Octombrie, Sâmbătă

    Timp Temperatura Precipitaţii Vânt Presiune Umiditate
    00:00 +20°C° 0 mm 1 m/s 754 mmHg 72%
    01:00 +19°C° 0 mm 1 m/s 754 mmHg 73%
    02:00 +17°C° 0 mm 0 m/s 754 mmHg 75%
    03:00 +16°C° 0 mm 0 m/s 754 mmHg 77%
    04:00 +16°C° 0 mm 0 m/s 754 mmHg 78%
    05:00 +16°C° 0 mm 0 m/s 754 mmHg 80%
    06:00 +15°C° 0 mm 0 m/s 754 mmHg 81%
    07:00 +17°C° 0 mm 0 m/s 754 mmHg 73%
    08:00 +19°C° 0 mm 0 m/s 755 mmHg 65%
    09:00 +23°C° 0 mm 1 m/s 755 mmHg 57%
    10:00 +24°C° 0 mm 1 m/s 755 mmHg 53%
    11:00 +26°C° 0 mm 1 m/s 754 mmHg 48%
    12:00 +27°C° 0 mm 1 m/s 754 mmHg 43%
    13:00 +28°C° 0 mm 2 m/s 754 mmHg 41%
    14:00 +28°C° 0 mm 2 m/s 753 mmHg 39%
    15:00 +29°C° 0 mm 2 m/s 753 mmHg 37%
    16:00 +27°C° 0 mm 2 m/s 753 mmHg 41%
    17:00 +26°C° 0 mm 2 m/s 754 mmHg 45%
    18:00 +24°C° 0 mm 2 m/s 754 mmHg 49%
    19:00 +24°C° 0 mm 3 m/s 754 mmHg 54%
    20:00 +22°C° 0 mm 3 m/s 755 mmHg 58%
    21:00 +21°C° 0 mm 4 m/s 755 mmHg 63%
    22:00 +20°C° 0 mm 3 m/s 755 mmHg 69%
    23:00 +19°C° 0 mm 3 m/s 756 mmHg 75%

    Mâine, 20 Octombrie, Duminică

    Timp Temperatura Precipitaţii Vânt Presiune Umiditate
    00:00 +18°C° 0 mm 3 m/s 756 mmHg 80%
    01:00 +18°C° 0 mm 3 m/s 756 mmHg 82%
    02:00 +17°C° 0 mm 2 m/s 756 mmHg 84%
    03:00 +17°C° 0 mm 2 m/s 756 mmHg 86%
    04:00 +17°C° 0 mm 2 m/s 756 mmHg 87%
    05:00 +16°C° 0 mm 1 m/s 756 mmHg 88%
    06:00 +16°C° 0 mm 1 m/s 756 mmHg 89%
    07:00 +18°C° 0 mm 1 m/s 757 mmHg 82%
    08:00 +20°C° 0 mm 1 m/s 757 mmHg 75%
    09:00 +21°C° 0 mm 1 m/s 757 mmHg 68%
    10:00 +23°C° 0 mm 2 m/s 757 mmHg 60%
    11:00 +25°C° 0 mm 2 m/s 757 mmHg 52%
    12:00 +26°C° 0 mm 3 m/s 756 mmHg 44%
    13:00 +27°C° 0 mm 3 m/s 756 mmHg 42%
    14:00 +27°C° 0 mm 3 m/s 756 mmHg 39%
    15:00 +28°C° 0 mm 3 m/s 755 mmHg 37%
    16:00 +26°C° 0 mm 3 m/s 756 mmHg 41%
    17:00 +25°C° 0 mm 4 m/s 756 mmHg 45%
    18:00 +22°C° 0 mm 4 m/s 756 mmHg 49%
    19:00 +22°C° 0 mm 4 m/s 757 mmHg 54%
    20:00 +21°C° 0 mm 5 m/s 757 mmHg 58%
    21:00 +20°C° 0 mm 5 m/s 757 mmHg 63%
    22:00 +19°C° 0 mm 5 m/s 757 mmHg 65%
    23:00 +19°C° 0 mm 4 m/s 757 mmHg 67%

    Poimâine, 21 Octombrie, Luni

    Timp Temperatura Precipitaţii Vânt Presiune Umiditate
    00:00 +18°C° 0 mm 4 m/s 758 mmHg 69%
    01:00 +17°C° 0 mm 3 m/s 757 mmHg 70%
    02:00 +17°C° 0 mm 3 m/s 757 mmHg 72%
    03:00 +16°C° 0 mm 2 m/s 757 mmHg 73%
    04:00 +16°C° 0 mm 2 m/s 757 mmHg 75%
    05:00 +16°C° 0 mm 2 m/s 758 mmHg 76%
    06:00 +15°C° 0 mm 1 m/s 758 mmHg 78%
    07:00 +18°C° 0 mm 1 m/s 758 mmHg 71%
    08:00 +19°C° 0 mm 1 m/s 758 mmHg 64%
    09:00 +20°C° 0 mm 2 m/s 758 mmHg 56%
    10:00 +23°C° 0 mm 2 m/s 758 mmHg 49%
    11:00 +24°C° 0 mm 3 m/s 758 mmHg 42%
    12:00 +26°C° 0 mm 3 m/s 757 mmHg 35%
    13:00 +26°C° 0 mm 4 m/s 757 mmHg 33%
    14:00 +26°C° 0 mm 4 m/s 757 mmHg 30%
    15:00 +27°C° 0 mm 4 m/s 756 mmHg 28%
    16:00 +25°C° 0 mm 4 m/s 757 mmHg 31%
    17:00 +24°C° 0 mm 3 m/s 757 mmHg 34%
    18:00 +21°C° 0 mm 3 m/s 757 mmHg 37%
    19:00 +20°C° 0 mm 3 m/s 757 mmHg 39%
    20:00 +20°C° 0 mm 3 m/s 757 mmHg 41%
    21:00 +19°C° 0 mm 4 m/s 757 mmHg 43%
    22:00 +18°C° 0 mm 3 m/s 757 mmHg 48%
    23:00 +17°C° 0 mm 3 m/s 757 mmHg 54%

    22 Octombrie, Marţi

    Timp Temperatura Precipitaţii Vânt Presiune Umiditate
    00:00 +17°C° 0 mm 3 m/s 757 mmHg 60%
    01:00 +16°C° 0 mm 2 m/s 757 mmHg 64%
    02:00 +16°C° 0 mm 2 m/s 757 mmHg 68%
    03:00 +15°C° 0 mm 2 m/s 757 mmHg 72%
    04:00 +15°C° 0 mm 1 m/s 757 mmHg 74%
    05:00 +14°C° 0 mm 1 m/s 757 mmHg 75%
    06:00 +14°C° 0 mm 1 m/s 757 mmHg 77%
    07:00 +16°C° 0 mm 1 m/s 757 mmHg 70%
    08:00 +19°C° 0 mm 1 m/s 758 mmHg 63%
    09:00 +19°C° 0 mm 2 m/s 758 mmHg 55%
    10:00 +21°C° 0 mm 2 m/s 757 mmHg 49%
    11:00 +23°C° 0 mm 2 m/s 757 mmHg 42%
    12:00 +24°C° 0 mm 3 m/s 757 mmHg 35%
    13:00 +25°C° 0 mm 3 m/s 757 mmHg 33%
    14:00 +25°C° 0 mm 3 m/s 756 mmHg 32%
    15:00 +25°C° 0 mm 3 m/s 756 mmHg 30%
    16:00 +24°C° 0 mm 3 m/s 756 mmHg 33%
    17:00 +22°C° 0 mm 3 m/s 757 mmHg 36%
    18:00 +20°C° 0 mm 3 m/s 757 mmHg 40%
    19:00 +20°C° 0 mm 3 m/s 757 mmHg 43%
    20:00 +19°C° 0 mm 3 m/s 757 mmHg 47%
    21:00 +18°C° 0 mm 3 m/s 757 mmHg 50%
    22:00 +18°C° 0 mm 3 m/s 757 mmHg 59%
    23:00 +17°C° 0 mm 3 m/s 757 mmHg 68%

    23 Octombrie, Miercuri

    Timp Temperatura Precipitaţii Vânt Presiune Umiditate
    00:00 +16°C° 0 mm 2 m/s 757 mmHg 76%
    01:00 +16°C° 0 mm 2 m/s 757 mmHg 79%
    02:00 +15°C° 0 mm 2 m/s 757 mmHg 81%
    03:00 +15°C° 0 mm 1 m/s 757 mmHg 83%
    04:00 +15°C° 0 mm 1 m/s 757 mmHg 85%
    05:00 +14°C° 0 mm 0 m/s 757 mmHg 86%
    06:00 +13°C° 0 mm 0 m/s 757 mmHg 87%
    07:00 +15°C° 0 mm 0 m/s 758 mmHg 80%
    08:00 +16°C° 0 mm 0 m/s 758 mmHg 73%
    09:00 +20°C° 0 mm 1 m/s 758 mmHg 67%
    10:00 +21°C° 0 mm 1 m/s 757 mmHg 61%
    11:00 +22°C° 0 mm 1 m/s 757 mmHg 55%
    12:00 +23°C° 0 mm 1 m/s 756 mmHg 49%
    13:00 +24°C° 0 mm 1 m/s 756 mmHg 47%
    14:00 +24°C° 0 mm 2 m/s 756 mmHg 44%
    15:00 +25°C° 0 mm 2 m/s 756 mmHg 42%
    16:00 +23°C° 0 mm 2 m/s 756 mmHg 46%
    17:00 +21°C° 0 mm 2 m/s 756 mmHg 50%
    18:00 +20°C° 0 mm 2 m/s 756 mmHg 55%
    19:00 +19°C° 0 mm 2 m/s 756 mmHg 57%
    20:00 +19°C° 0 mm 2 m/s 756 mmHg 59%
    21:00 +19°C° 0 mm 1 m/s 757 mmHg 62%
    22:00 +19°C° 0 mm 1 m/s 756 mmHg 64%
    23:00 +18°C° 0 mm 1 m/s 756 mmHg 67%

    24 Octombrie, Joi

    Timp Temperatura Precipitaţii Vânt Presiune Umiditate
    00:00 +18°C° 0 mm 1 m/s 756 mmHg 69%
    01:00 +16°C° 0 mm 1 m/s 756 mmHg 73%
    02:00 +15°C° 0 mm 1 m/s 756 mmHg 77%
    03:00 +14°C° 0 mm 0 m/s 756 mmHg 80%
    04:00 +14°C° 0 mm 0 m/s 756 mmHg 81%
    05:00 +14°C° 0 mm 0 m/s 756 mmHg 82%
    06:00 +13°C° 0 mm 0 m/s 756 mmHg 83%
    07:00 +15°C° 0 mm 0 m/s 756 mmHg 76%
    08:00 +17°C° 0 mm 0 m/s 756 mmHg 68%
    09:00 +20°C° 0 mm 1 m/s 756 mmHg 60%
    10:00 +22°C° 0 mm 1 m/s 756 mmHg 56%
    11:00 +23°C° 0 mm 1 m/s 756 mmHg 51%
    12:00 +24°C° 0 mm 1 m/s 755 mmHg 46%
    13:00 +25°C° 0 mm 2 m/s 755 mmHg 44%
    14:00 +25°C° 0 mm 2 m/s 755 mmHg 42%
    15:00 +26°C° 0 mm 2 m/s 755 mmHg 41%
    16:00 +24°C° 0 mm 2 m/s 755 mmHg 45%
    17:00 +23°C° 0 mm 2 m/s 755 mmHg 50%
    18:00 +21°C° 0 mm 2 m/s 755 mmHg 54%
    19:00 +20°C° 0 mm 2 m/s 756 mmHg 56%
    20:00 +20°C° 0 mm 2 m/s 756 mmHg 58%
    21:00 +19°C° 0 mm 2 m/s 756 mmHg 61%
    22:00 +18°C° 0 mm 2 m/s 756 mmHg 66%
    23:00 +18°C° 0 mm 2 m/s 756 mmHg 72%
    Arată mai mult